Location: Toronto
(43.6672°N, 79.4170°W)
Time: 01:24:28
(UTC-04:00)

ISS - All Passes

Search period start: 22 August 2017 00:00
Search period end: 01 September 2017 00:00
Orbit: 401 x 408 km, 51.6° (Epoch: 22 August)

Date Brightness Start Highest point End Pass type
(mag) Time Alt. Az. Time Alt. Az. Time Alt. Az.
22 Aug - 10:16:42 10° SSW 10:19:49 41° SE 10:22:57 10° ENE daylight
22 Aug - 11:53:18 10° W 11:56:21 34° NNW 11:59:24 10° NE daylight
22 Aug - 13:30:59 10° NW 13:33:30 20° N 13:36:00 10° NE daylight
22 Aug - 15:07:42 10° NW 15:10:40 30° NNE 15:13:37 10° E daylight
22 Aug - 16:44:05 10° WNW 16:47:17 52° SW 16:50:28 10° SE daylight
23 Aug - 09:25:02 10° S 09:27:41 23° SE 09:30:21 10° E daylight
23 Aug - 11:00:45 10° WSW 11:03:58 51° NNW 11:07:11 10° NE daylight
23 Aug - 12:38:23 10° WNW 12:40:59 21° N 12:43:34 10° NE daylight
23 Aug - 14:15:28 10° NW 14:18:13 24° NNE 14:20:58 10° ENE daylight
23 Aug - 15:51:46 10° WNW 15:55:02 85° NNE 15:58:18 10° ESE daylight
23 Aug - 17:29:32 10° WSW 17:31:05 13° SW 17:32:36 10° SSW daylight
24 Aug - 08:34:05 10° SSE 08:35:36 13° SE 08:37:08 10° ESE daylight
24 Aug - 10:08:21 10° WSW 10:11:38 87° NNW 10:14:56 10° ENE daylight
24 Aug - 11:45:42 10° WNW 11:48:28 24° NNW 11:51:14 10° NE daylight
24 Aug - 13:23:07 10° NW 13:25:42 21° N 13:28:17 10° ENE daylight
24 Aug - 14:59:30 10° NW 15:02:42 51° NNE 15:05:54 10° ESE daylight
24 Aug - 16:36:21 10° W 16:39:00 23° SW 16:41:38 10° S daylight
25 Aug - 09:16:10 10° SW 09:19:22 51° SE 09:22:35 10° ENE daylight
25 Aug - 10:53:00 10° W 10:55:59 31° NNW 10:58:58 10° NE daylight
25 Aug - 12:30:39 10° NW 12:33:09 20° N 12:35:40 10° NE daylight
25 Aug - 14:07:15 10° NW 14:10:18 34° NNE 14:13:19 10° E daylight
25 Aug - 15:43:43 10° WNW 15:46:50 42° SW 15:49:56 10° SSE daylight
26 Aug - 08:24:19 10° SSW 08:27:10 28° SE 08:30:02 10° ENE daylight
26 Aug - 10:00:22 10° W 10:03:33 44° NNW 10:06:43 10° NE daylight
26 Aug - 11:38:03 10° NW 11:40:35 20° N 11:43:09 10° NE daylight
26 Aug - 13:15:00 10° NW 13:17:49 26° NNE 13:20:38 10° ENE daylight
26 Aug - 14:51:18 10° WNW 14:54:34 79° SW 14:57:50 10° SE daylight
26 Aug - 16:30:06 10° WSW 16:30:31 10° SW 16:30:56 10° SW daylight
27 Aug - 07:32:59 10° S 07:35:02 16° SE 07:37:05 10° E daylight
27 Aug - 09:07:52 10° WSW 09:11:09 72° NNW 09:14:26 10° NE daylight
27 Aug - 10:45:20 10° WNW 10:48:02 23° NNW 10:50:45 10° NE daylight
27 Aug - 12:22:39 10° NW 12:25:17 22° N 12:27:54 10° ENE daylight
27 Aug - 13:58:58 10° NW 14:02:13 60° NNE 14:05:28 10° ESE daylight
27 Aug - 15:36:02 10° W 15:38:26 19° SW 15:40:48 10° S daylight
28 Aug - 08:15:34 10° SW 08:18:49 64° SE 08:22:05 10° ENE daylight
28 Aug - 09:52:35 10° W 09:55:30 28° NNW 09:58:25 10° NE daylight
28 Aug - 11:30:11 10° NW 11:32:42 20° N 11:35:13 10° NE daylight
28 Aug - 13:06:41 10° NW 13:09:48 38° NNE 13:12:54 10° E daylight
28 Aug - 14:43:14 10° WNW 14:46:15 34° SW 14:49:14 10° SSE daylight
29 Aug - 07:23:32 10° SSW 07:26:33 34° SE 07:29:35 10° ENE daylight
29 Aug - 08:59:53 10° W 09:03:00 38° NNW 09:06:07 10° NE daylight
29 Aug - 10:37:34 10° NW 10:40:06 20° N 10:42:37 10° NE daylight
29 Aug - 12:14:24 10° NW 12:17:18 28° NNE 12:20:12 10° E daylight
29 Aug - 13:50:44 10° WNW 13:53:59 64° SW 13:57:12 10° SE daylight
30 Aug - 06:31:56 10° S 06:34:21 19° SE 06:36:46 10° E daylight
30 Aug - 08:07:18 10° WSW 08:10:34 60° NNW 08:13:49 10° NE daylight
30 Aug - 09:44:51 10° WNW 09:47:30 22° N 09:50:08 10° NE daylight
30 Aug - 11:22:02 10° NW 11:24:44 23° N 11:27:26 10° ENE daylight
30 Aug - 12:58:20 10° NW 13:01:37 72° NNE 13:04:53 10° ESE daylight
30 Aug - 14:35:43 10° W 14:37:44 15° SW 14:39:45 10° S daylight
31 Aug - 05:41:36 10° SE 05:42:12 10° SE 05:42:49 10° ESE visible
31 Aug - 07:14:52 10° SW 07:18:10 79° SE 07:21:27 10° ENE daylight
31 Aug - 08:52:04 10° WNW 08:54:55 26° NNW 08:57:45 10° NE daylight
31 Aug - 10:29:34 10° NW 10:32:08 20° N 10:34:41 10° NE daylight
31 Aug - 12:06:00 10° NW 12:09:11 44° NNE 12:12:20 10° E daylight
31 Aug - 13:42:41 10° WNW 13:45:33 28° SW 13:48:23 10° SSE daylight
